[[[{"header":{"parameterUnit":"kt","parameterCategory":2,"dx":1,"dy":1,"la1":30.253999710083008,"la2":30.299108505249023,"lo1":-89.0895004272461,"lo2":-89.04439544677734,"nx":28,"ny":28,"refTime":"2022-10-20T21:00:00:Z","depth":0,"parameterNumber":1,"parameterNumberName":"U-component_of_WINDS"},"data":[-1.4937,-1.5021,-1.5057,-1.517,-1.5221,-1.5305,-1.5347,-1.5406,-1.5462,-1.5568,-1.5636,-1.5683,-1.5755,-1.5846,-1.5924,-1.5943,-1.5974,-1.5977,-1.6,-1.5949,-1.5944,-1.594,-1.5922,-1.5983,-1.5983,-1.6049,-1.6049,-1.6049,-1.4898,-1.4949,-1.5019,-1.5111,-1.5172,-1.519,-1.5265,-1.5316,-1.5391,-1.5461,-1.5529,-1.5627,-1.5709,-1.5781,-1.5867,-1.591,-1.5925,-1.5931,-1.5929,-1.5941,-1.5887,-1.5867,-1.5918,-1.5918,-1.5918,-1.5918,-1.5918,-1.5918,-1.4837,-1.4885,-1.4961,-1.5038,-1.5094,-1.5156,-1.5209,-1.5264,-1.5334,-1.5426,-1.5457,-1.5544,-1.5622,-1.5744,-1.5794,-1.5864,-1.5864,-1.5883,-1.5889,-1.5893,-1.5893,-1.5796,-1.5881,-1.5881,-1.5881,-1.5881,-1.5881,0,-1.4803,-1.483,-1.4899,-1.4979,-1.5036,-1.5102,-1.5169,-1.5203,-1.5274,-1.5329,-1.5412,-1.5467,-1.5575,-1.566,-1.5748,-1.5798,-1.5825,-1.5831,-1.5845,-1.5832,-1.5809,-1.5824,-1.5736,-1.5829,-1.5828,-1.5828,-1.5828,-1.5828,-1.4746,-1.4797,-1.4894,-1.4938,-1.4983,-1.5053,-1.5103,-1.5161,-1.5211,-1.5303,-1.5344,-1.5429,-1.5499,-1.5628,-1.5694,-1.5776,-1.579,-1.5822,-1.5803,-1.5788,-1.5793,-1.579,-1.5797,-1.5825,-1.5825,-1.5825,-1.5826,0,-1.4711,-1.4768,-1.486,-1.4952,-1.4976,-1.5028,-1.5108,-1.5159,-1.5207,-1.5286,-1.5307,-1.5383,-1.5465,-1.5526,-1.5632,-1.5662,-1.5753,-1.5764,-1.5727,-1.5733,-1.5769,-1.5765,-1.5871,-1.5889,-1.5824,-1.5825,-1.5825,0,-1.4685,-1.4751,-1.4834,-1.4884,-1.496,-1.5016,-1.509,-1.5138,-1.5205,-1.5267,-1.5306,-1.5364,-1.5433,-1.55,-1.5544,-1.5629,-1.5649,-1.5677,-1.5688,-1.5675,-1.5671,-1.5704,-1.5702,-1.5709,-1.5709,-1.5708,-1.5708,0,-1.4625,-1.4746,-1.4827,-1.4865,-1.4969,-1.5006,-1.5052,-1.5127,-1.5175,-1.5248,-1.528,-1.5361,-1.5405,-1.5468,-1.5524,-1.5509,-1.5629,-1.562,-1.5658,-1.5657,-1.5682,-1.568,-1.5757,-1.5707,-1.5707,-1.5706,-1.5706,0,-1.4614,-1.4683,-1.4792,-1.488,-1.491,-1.4964,-1.5046,-1.5107,-1.5183,-1.5214,-1.5271,-1.5305,-1.5382,-1.5369,-1.5478,-1.5443,-1.5486,-1.552,-1.5524,-1.5535,-1.5519,-1.5557,-1.5623,-1.5633,-1.5545,-1.5544,-1.5543,0,-1.453,-1.4655,-1.4703,-1.4806,-1.4872,-1.4911,-1.4972,-1.5038,-1.5084,-1.5148,-1.52,-1.5273,-1.5275,-1.5307,-1.5353,-1.5409,-1.5455,-1.5405,-1.5501,-1.5504,-1.548,-1.5542,-1.5537,-1.5601,-1.5526,-1.5528,-1.5529,0,-1.4472,-1.4596,-1.4611,-1.4656,-1.475,-1.4806,-1.4876,-1.496,-1.5,-1.5069,-1.5131,-1.5234,-1.5242,-1.5293,-1.5328,-1.5373,-1.5426,-1.5375,-1.5378,-1.5383,-1.5522,-1.5518,-1.5528,-1.544,-1.5442,-1.5444,-1.5516,0,-1.4446,-1.4515,-1.4556,-1.4653,-1.4705,-1.4771,-1.4834,-1.4881,-1.4909,-1.4956,-1.5047,-1.5117,-1.5203,-1.5231,-1.5259,-1.534,-1.5337,-1.5343,-1.5336,-1.5375,-1.54,-1.541,-1.5292,-1.5293,-1.5293,-1.5293,0,0,-1.4352,-1.4452,-1.4502,-1.4571,-1.4618,-1.4657,-1.4723,-1.4774,-1.4875,-1.4908,-1.4904,-1.5059,-1.5116,-1.5221,-1.5238,-1.5272,-1.5293,-1.5277,-1.5355,-1.5362,-1.5368,-1.5394,-1.5404,-1.5293,-1.5293,-1.5293,-1.5293,0,-1.4355,-1.4409,-1.4472,-1.4527,-1.4608,-1.4654,-1.4669,-1.4757,-1.479,-1.4878,-1.4911,-1.4973,-1.5095,-1.5152,-1.5197,-1.5265,-1.5287,-1.5287,-1.5303,-1.5354,-1.5361,-1.5366,-1.5393,-1.5402,-1.5294,-1.5294,-1.5294,0,-1.4311,-1.4375,-1.4411,-1.4518,-1.4572,-1.4639,-1.4646,-1.4715,-1.4766,-1.4806,-1.4893,-1.4941,-1.5022,-1.5111,-1.5153,-1.5151,-1.5278,-1.5248,-1.5249,-1.5256,-1.5309,-1.5316,-1.5323,-1.5233,-1.5233,-1.5232,0,0,-1.4305,-1.4369,-1.4456,-1.4523,-1.4555,-1.4623,-1.4665,-1.4697,-1.4767,-1.4795,-1.4856,-1.4925,-1.4997,-1.5043,-1.5114,-1.5202,-1.5225,-1.5238,-1.5241,-1.5243,-1.5251,-1.5304,-1.5311,-1.523,-1.523,-1.523,0,0,-1.4303,-1.4406,-1.4421,-1.4507,-1.4572,-1.4663,-1.4703,-1.4725,-1.4794,-1.4793,-1.4853,-1.4874,-1.4958,-1.5003,-1.4972,-1.5113,-1.5104,-1.5113,-1.508,-1.5085,-1.5087,-1.5075,-1.499,0,0,0,0,0,-1.4338,-1.4393,-1.4406,-1.4429,-1.4564,-1.4655,-1.4673,-1.4722,-1.4715,-1.4746,-1.4801,-1.482,-1.4999,-1.4973,-1.4996,-1.5031,-1.5207,-1.5211,-1.5215,-1.5194,-1.5198,-1.5202,0,0,0,0,0,0,-1.4348,-1.4376,-1.4405,-1.4496,-1.4527,-1.4654,-1.4653,-1.4668,-1.4713,-1.4716,-1.4809,-1.4823,-1.4868,-1.4964,-1.4984,-1.5016,-1.4983,-1.5209,-1.5212,-1.5216,-1.5196,-1.5199,-1.5202,0,0,0,0,0,-1.4356,-1.4378,-1.4582,-1.4496,-1.4523,-1.4602,-1.4651,-1.4664,-1.47,-1.4784,-1.4799,-1.4733,-1.4868,-1.4888,-1.4976,-1.5006,-1.497,-1.4977,-1.5211,-1.5214,-1.5216,-1.5197,0,0,0,0,0,0,-1.4361,-1.4392,-1.4588,-1.4598,-1.4478,-1.4596,-1.4616,-1.466,-1.4767,-1.4782,-1.4711,-1.4711,-1.4868,-1.4884,-1.49,-1.4999,-1.4958,-1.4966,-1.4971,-1.5213,-1.5215,-1.5217,0,0,0,0,0,0,-1.438,-1.44,-1.4593,-1.4568,-1.4576,-1.459,-1.4608,-1.4689,-1.4768,-1.4687,-1.4691,-1.471,-1.4845,-1.4881,-1.4894,-1.5019,-1.495,-1.4957,-1.4962,-1.4965,-1.5215,-1.5217,0,0,0,0,0,0,-1.4389,-1.4406,-1.4566,-1.4572,-1.4579,-1.4696,-1.4663,-1.4799,-1.4744,-1.4682,-1.4741,-1.4739,-1.4842,-1.4855,-1.4889,-1.501,-1.5017,-1.495,-1.4955,-1.4958,-1.4961,0,0,0,0,0,0,0,-1.4397,-1.4268,-1.4528,-1.4575,-1.4581,-1.4692,-1.4695,-1.4697,-1.4744,-1.4742,-1.4741,-1.474,-1.4909,-1.4916,-1.4924,-1.5002,0,0,-1.4949,-1.4953,0,0,0,0,0,0,0,0,-1.4261,-1.4266,-1.4528,-1.453,-1.4532,-1.4692,-1.4694,-1.4697,-1.4744,-1.4742,-1.4741,-1.474,-1.4911,-1.4917,-1.4924,0,0,0,0,0,0,0,0,0,0,0,0,0,0,0,-1.4529,-1.453,0,-1.4692,-1.4694,-1.4696,-1.4743,-1.4743,-1.4742,-1.4741,-1.4913,-1.4918,-1.4923,0,0,0,0,0,0,0,0,0,0,0,0,0,0,0,0,0,0,0,0,0,0,0,0,0,0,0,0,0,0,0,0,0,0,0,0,0,0,0,0,0,0,0,0,0,0,0,0,0,0,0,0,0,0,0,0,0,0,0,0,0,0,0,0,0,0,0,0,0]}],[{"header":{"parameterUnit":"kt","parameterCategory":2,"dx":1,"dy":1,"la1":30.253999710083008,"la2":30.299108505249023,"lo1":-89.0895004272461,"lo2":-89.04439544677734,"nx":28,"ny":28,"refTime":"2022-10-20T21:00:00:Z","depth":0,"parameterNumber":2,"parameterNumberName":"V-component_of_WINDS"},"data":[8.6419,8.646,8.6424,8.6453,8.6425,8.6438,8.643,8.6416,8.6396,8.6405,8.6403,8.637,8.6332,8.632,8.6314,8.6298,8.6296,8.6336,8.631,8.6166,8.6144,8.6122,8.6107,8.6338,8.6338,8.646,8.6462,8.6463,8.631,8.6283,8.6291,8.6271,8.6275,8.6214,8.6193,8.6199,8.6212,8.6188,8.6186,8.619,8.6189,8.6138,8.6129,8.6144,8.6112,8.6143,8.6138,8.6132,8.5979,8.5965,8.6168,8.6168,8.6168,8.6168,8.6168,8.6168,8.6102,8.613,8.6097,8.6103,8.6084,8.6071,8.609,8.6049,8.6054,8.6043,8.5999,8.6012,8.598,8.5952,8.5934,8.594,8.5898,8.592,8.5924,8.5928,8.5937,8.5754,8.5939,8.5938,8.5937,8.5937,8.5936,0,8.5936,8.5903,8.5908,8.5902,8.5904,8.5896,8.5882,8.5893,8.581,8.5819,8.5825,8.5823,8.5818,8.5818,8.5803,8.5778,8.571,8.5702,8.5715,8.5732,8.5749,8.5733,8.5478,8.5696,8.5694,8.5692,8.5691,8.569,8.5716,8.5756,8.5705,8.5713,8.5696,8.5712,8.5712,8.5637,8.5641,8.5612,8.5639,8.5641,8.5637,8.5654,8.5603,8.5599,8.5564,8.565,8.5563,8.5578,8.5556,8.5552,8.5552,8.5666,8.5669,8.5672,8.5674,0,8.5595,8.5536,8.5585,8.5531,8.5518,8.5563,8.5514,8.554,8.5497,8.5525,8.5527,8.5459,8.5467,8.5402,8.54,8.5365,8.5428,8.5399,8.5436,8.5424,8.5489,8.5481,8.5725,8.575,8.5519,8.5521,8.5523,0,8.5381,8.5436,8.5343,8.5375,8.5433,8.5356,8.5414,8.5383,8.5356,8.5377,8.5293,8.5315,8.5229,8.524,8.5189,8.5231,8.5233,8.5205,8.519,8.5209,8.5211,8.5204,8.519,8.5163,8.5162,8.5161,8.516,0,8.5191,8.521,8.5262,8.5256,8.5204,8.523,8.521,8.5179,8.5181,8.5173,8.5172,8.517,8.5167,8.5165,8.5099,8.5041,8.5151,8.5058,8.5122,8.5124,8.5145,8.5143,8.5382,8.5158,8.5158,8.5158,8.5157,0,8.5006,8.5003,8.5091,8.5043,8.5051,8.5087,8.5078,8.5094,8.5068,8.5038,8.5032,8.4966,8.5003,8.4914,8.496,8.4903,8.4904,8.4883,8.4887,8.488,8.478,8.4914,8.5154,8.5173,8.4881,8.4878,8.4876,0,8.4801,8.4876,8.4809,8.4895,8.4919,8.482,8.4858,8.4839,8.4802,8.4815,8.4774,8.4791,8.4712,8.4708,8.4741,8.4697,8.4773,8.4686,8.4698,8.4699,8.47,8.4922,8.497,8.511,8.4846,8.4849,8.4852,0,8.4634,8.4572,8.4593,8.458,8.4544,8.4566,8.4612,8.4612,8.4623,8.4614,8.4646,8.4673,8.461,8.4606,8.4553,8.459,8.4719,8.4519,8.4517,8.4551,8.4829,8.4873,8.4897,8.4675,8.4678,8.4681,8.4828,0,8.4355,8.4387,8.4441,8.4423,8.443,8.4483,8.4415,8.4431,8.4378,8.4337,8.4388,8.4357,8.4357,8.437,8.4321,8.4429,8.4399,8.4335,8.4238,8.4387,8.4433,8.4453,8.4175,8.4172,8.4169,8.4167,0,0,8.4169,8.4213,8.414,8.4182,8.4182,8.4079,8.414,8.4129,8.411,8.4111,8.4058,8.409,8.4068,8.4135,8.4177,8.418,8.419,8.4142,8.4319,8.4336,8.4352,8.4402,8.4424,8.4162,8.4161,8.416,8.4159,0,8.4051,8.4035,8.4099,8.4084,8.4059,8.4014,8.403,8.3987,8.3964,8.4016,8.3927,8.395,8.3981,8.3965,8.3961,8.4134,8.4063,8.4141,8.4253,8.4294,8.4315,8.4333,8.4388,8.4409,8.4153,8.4153,8.4153,0,8.3868,8.3838,8.3863,8.3864,8.3847,8.3877,8.3759,8.3798,8.3818,8.3702,8.3754,8.3728,8.3704,8.3781,8.3813,8.3764,8.395,8.3883,8.3898,8.3898,8.3934,8.3959,8.3982,8.3684,8.3683,8.3681,0,0,8.3776,8.3806,8.3749,8.3833,8.3829,8.3763,8.3774,8.3721,8.3703,8.3696,8.366,8.3644,8.3659,8.3672,8.3683,8.378,8.3764,8.3828,8.385,8.3868,8.3879,8.392,8.3945,8.3676,8.3676,8.3676,0,0,8.373,8.3667,8.3617,8.3707,8.3693,8.3641,8.3694,8.3631,8.3635,8.362,8.3534,8.3526,8.3597,8.3575,8.3514,8.3646,8.3553,8.3567,8.3657,8.3684,8.3706,8.3707,8.3387,0,0,0,0,0,8.3574,8.3675,8.363,8.3635,8.3637,8.3666,8.3666,8.3596,8.353,8.3573,8.3532,8.3458,8.3523,8.3467,8.3472,8.3539,8.361,8.3622,8.3633,8.3772,8.3801,8.3825,0,0,0,0,0,0,8.3575,8.3582,8.3627,8.3581,8.3581,8.3662,8.3534,8.3518,8.3524,8.3509,8.3469,8.3457,8.3398,8.3459,8.3465,8.3531,8.3385,8.3614,8.3624,8.3633,8.3782,8.3805,8.3826,0,0,0,0,0,8.3576,8.3581,8.3602,8.3579,8.3579,8.3511,8.353,8.3515,8.3518,8.3456,8.3442,8.3465,8.3402,8.3402,8.3463,8.3529,8.338,8.3383,8.3621,8.3629,8.3636,8.3793,0,0,0,0,0,0,8.3576,8.3567,8.36,8.3597,8.3536,8.3505,8.3498,8.3513,8.3464,8.3451,8.3448,8.3437,8.3406,8.3405,8.3406,8.3533,8.3376,8.3379,8.338,8.3627,8.3633,8.3639,0,0,0,0,0,0,8.3564,8.3566,8.3599,8.3548,8.3539,8.35,8.3493,8.3536,8.3465,8.3458,8.3447,8.3444,8.3405,8.3408,8.3408,8.3477,8.3373,8.3376,8.3378,8.3379,8.3632,8.3637,0,0,0,0,0,0,8.3563,8.3565,8.3548,8.3542,8.3533,8.3496,8.3535,8.3541,8.3423,8.3462,8.341,8.3404,8.341,8.3408,8.3411,8.348,8.3478,8.3374,8.3375,8.3376,8.3377,0,0,0,0,0,0,0,8.3563,8.357,8.3617,8.3536,8.3528,8.3572,8.3571,8.357,8.3421,8.3416,8.3411,8.3407,8.336,8.3362,8.3365,8.3482,0,0,8.3373,8.3374,0,0,0,0,0,0,0,0,8.3568,8.357,8.3617,8.3616,8.3616,8.3572,8.3571,8.357,8.3421,8.3417,8.3412,8.3409,8.336,8.3362,8.3365,0,0,0,0,0,0,0,0,0,0,0,0,0,0,0,8.3617,8.3616,0,8.3571,8.3571,8.357,8.342,8.3417,8.3413,8.341,8.3361,8.3363,8.3364,0,0,0,0,0,0,0,0,0,0,0,0,0,0,0,0,0,0,0,0,0,0,0,0,0,0,0,0,0,0,0,0,0,0,0,0,0,0,0,0,0,0,0,0,0,0,0,0,0,0,0,0,0,0,0,0,0,0,0,0,0,0,0,0,0,0,0,0,0]}]]]